Regional Weather Roundup
Issued by NWS

Home | Current Version | Previous Version | Graphics & Text | Print | Product List | Glossary On
Versions: 1 2 3 4 5 6 7 8 9 10 11 12 13 14 15 16 17 18 19 20 21 22 23 24 25 26 27 28 29 30 31 32 33 34 35 36 37 38 39 40 41 42 43 44 45 46 47 48 49 50
000
ASUS45 KCYS 020510
RWRWY

WYOMING REGIONAL WEATHER ROUNDUP
NATIONAL WEATHER SERVICE CHEYENNE WY
1100 PM MDT FRI AUG 01 2014

NOTE:  "FAIR" INDICATES FEW OR NO CLOUDS BELOW 12,000 FEET
WITH NO SIGNIFICANT WEATHER AND/OR OBSTRUCTIONS TO VISIBILITY.

WYZ001-020600-
YELLOWSTONE NATIONAL PARK

CITY           SKY/WX    TMP DP  RH WIND       PRES   REMARKS
LK YELLOWSTONE   N/A     51  45  79 CALM      30.47F
W YELLOWSTONE  NOT AVBL

$$
WYZ002>013-054>058-071-098>099-020600-
NORTHERN WYOMING

CITY           SKY/WX    TMP DP  RH WIND       PRES   REMARKS
JACKSON        CLOUDY    64  43  45 NE9       30.36F
CODY           CLOUDY    66  46  48 SW13      30.26F
GREYBULL       CLOUDY    74  47  38 W6        30.18R
WORLAND        MOCLDY    69  48  47 SW6       30.21R
SHERIDAN       MOCLDY    63  51  65 MISG      30.17R
BUFFALO        PTCLDY    70  42  36 W9        30.24S
GILLETTE       CLEAR     59  44  57 SW3       30.17S
HULETT         FAIR      68  45  42 MISG      30.18
NEWCASTLE      FAIR      64  41  42 E7        30.17

$$
WYZ014>020-022>026-101>103-020600-
CENTRAL WYOMING

CITY           SKY/WX    TMP DP  RH WIND       PRES   REMARKS
BIG PINEY      CLOUDY    64  42  44 N12       30.38R
PINEDALE       CLOUDY    59  43  55 W9        30.38F
DUBOIS         FAIR      54  41  62 W10       30.40S
LANDER         MOCLDY    69  41  36 W7        30.28R
RIVERTON       CLOUDY    70  41  34 N3        30.27S
CASPER         PTCLDY    66  36  32 E6        30.24S
DOUGLAS        NOT AVBL

$$
WYZ021-027>030-104>119-020600-
SOUTHERN WYOMING

CITY           SKY/WX    TMP DP  RH WIND       PRES   REMARKS
EVANSTON       PTCLDY    65  40  39 E8        30.34R
KEMMERER       PTCLDY    61  39  44 N10       30.36S
FORT BRIDGER   FAIR      64  44  47 NE7       30.36S
ROCK SPRINGS   CLOUDY    69  38  32 NE18      30.32R
DIXON          FAIR      65  44  46 E6        30.31S
RAWLINS        PTCLDY    62  37  39 E6        30.33R
SARATOGA       FAIR      59  37  44 S9        30.35S
LARAMIE        CLEAR     53  45  74 SE8       30.37F
CHEYENNE       CLEAR     61  49  64 W5        30.31S
TORRINGTON     CLEAR     69  49  48 SW5       30.16S
PINE BLUFFS    FAIR      57  50  77 W3        30.25F

$$



USA.gov is the U.S. government's official web portal to all federal, state and local government web resources and services.